Location: Le Sartre
(44.8050°N, 2.2123°E)
Time: 10:51:03
(UTC+00:00)

YAOGAN 11 - Pass Details

Date: 15 May 2026
Orbit: 599 x 646 km, 98.4° (Epoch: 5 June)

Event Time Altitude Azimuth Distance (km) Brightness Sun altitude
Rises 20:47:02 0° 13° (NNE) 2,946 8.0 -14.1°
Reaches altitude 10° 20:49:14 10° 13° (NNE) 2,039 7.2 -14.4°
Maximum altitude 20:53:41 87° 285° (WNW) 650 4.1 -14.9°
Drops below altitude 10° 20:58:09 10° 196° (SSW) 2,038 6.4 -15.4°
Enters shadow 20:58:39 - 196° (SSW) 2,245 6.6 -15.5°
